| time (UTC) | temp F | wind direction | speed MPH | gust MPH | rain 1hr in | rain 24hr in | rain mn in | humidity % | barometer mb |
| 20260510201638 | 47 | 0 | 7.0 | 10.0 | 0.00 | 0.09 | 0.09 | 53 | 1012.9 |
| 20260510200653 | 47 | 0 | 8.0 | 11.0 | 0.00 | 0.09 | 0.09 | 53 | 1013.0 |
| 20260510195628 | 48 | 325 | 9.0 | 11.0 | 0.00 | 0.09 | 0.09 | 53 | 1013.0 |
| 20260510194624 | 49 | 8.0 | 11.0 | 0.00 | 0.09 | 0.09 | 54 | 1013.1 | |
| 20260510193619 | 50 | 349 | 7.0 | 11.0 | 0.00 | 0.09 | 0.09 | 56 | 1013.1 |
| 20260510192616 | 50 | 0 | 8.0 | 12.0 | 0.00 | 0.09 | 0.09 | 57 | 1013.0 |
| 20260510191612 | 50 | 334 | 9.0 | 12.0 | 0.00 | 0.09 | 0.09 | 59 | 1013.1 |
| 20260510190628 | 50 | 0 | 9.0 | 12.0 | 0.00 | 0.09 | 0.09 | 60 | 1013.1 |
| 20260510185622 | 51 | 6.0 | 9.0 | 0.00 | 0.09 | 0.09 | 57 | 1013.1 | |
| 20260510184558 | 52 | 0 | 4.0 | 6.0 | 0.00 | 0.09 | 0.09 | 58 | 1013.0 |
| 20260510183553 | 51 | 6.0 | 8.0 | 0.00 | 0.09 | 0.09 | 56 | 1013.1 | |
| 20260510182548 | 53 | 0 | 9.0 | 13.0 | 0.00 | 0.09 | 0.09 | 52 | 1013.2 |
| 20260510181644 | 55 | 35 | 6.0 | 12.0 | 0.00 | 0.09 | 0.09 | 51 | 1013.2 |
| 20260510180639 | 52 | 0 | 5.0 | 8.0 | 0.00 | 0.09 | 0.09 | 53 | 1013.3 |
| 20260510175635 | 52 | 52 | 6.0 | 10.0 | 0.00 | 0.09 | 0.09 | 51 | 1013.2 |
| 20260510174632 | 53 | 24 | 10.0 | 15.0 | 0.00 | 0.09 | 0.09 | 48 | 1013.3 |
| 20260510173627 | 55 | 10.0 | 14.0 | 0.00 | 0.09 | 0.09 | 41 | 1013.4 | |
| 20260510172622 | 59 | 7.0 | 12.0 | 0.00 | 0.09 | 0.09 | 40 | 1013.4 | |
| 20260510171617 | 57 | 28 | 6.0 | 9.0 | 0.00 | 0.09 | 0.09 | 42 | 1013.6 |
| 20260510170632 | 54 | 68 | 5.0 | 8.0 | 0.00 | 0.09 | 0.09 | 47 | 1013.6 |
| 20260510165627 | 53 | 20 | 8.0 | 12.0 | 0.00 | 0.09 | 0.09 | 47 | 1013.8 |
| 20260510164602 | 55 | 90 | 7.0 | 12.0 | 0.00 | 0.09 | 0.09 | 43 | 1014.0 |
| 20260510163558 | 56 | 6.0 | 10.0 | 0.00 | 0.09 | 0.09 | 40 | 1014.1 | |
| 20260510162554 | 59 | 90 | 7.0 | 14.0 | 0.00 | 0.09 | 0.09 | 40 | 1014.1 |
| 20260510161550 | 57 | 18 | 13.0 | 17.0 | 0.00 | 0.11 | 0.09 | 37 | 1014.1 |
| 20260510160545 | 58 | 6.0 | 11.0 | 0.00 | 0.11 | 0.09 | 41 | 1014.1 | |
| 20260510155641 | 54 | 81 | 9.0 | 14.0 | 0.00 | 0.11 | 0.09 | 44 | 1014.3 |
| 20260510154635 | 57 | 350 | 14.0 | 25.0 | 0.00 | 0.11 | 0.09 | 39 | 1014.3 |
| 20260510153631 | 60 | 101 | 4.0 | 7.0 | 0.00 | 0.11 | 0.09 | 40 | 1014.5 |
| 20260510152627 | 56 | 35 | 7.0 | 11.0 | 0.00 | 0.11 | 0.09 | 44 | 1014.6 |
| 20260510151624 | 57 | 344 | 12.0 | 18.0 | 0.00 | 0.11 | 0.09 | 41 | 1014.6 |
| 20260510150700 | 56 | 254 | 5.0 | 8.0 | 0.00 | 0.11 | 0.09 | 41 | 1014.7 |
| 20260510145616 | 60 | 90 | 4.0 | 5.0 | 0.00 | 0.11 | 0.09 | 40 | 1014.7 |
| 20260510144612 | 57 | 90 | 5.0 | 10.0 | 0.00 | 0.11 | 0.09 | 42 | 1014.9 |
| 20260510143608 | 56 | 90 | 8.0 | 12.0 | 0.00 | 0.11 | 0.09 | 41 | 1015.0 |
| 20260510142622 | 58 | 57 | 10.0 | 17.0 | 0.00 | 0.11 | 0.09 | 43 | 1015.0 |
| 20260510141557 | 56 | 40 | 5.0 | 9.0 | 0.00 | 0.11 | 0.09 | 43 | 1015.2 |
| 20260510140553 | 57 | 90 | 8.0 | 15.0 | 0.00 | 0.11 | 0.09 | 43 | 1015.2 |
| 20260510135549 | 56 | 0 | 9.0 | 14.0 | 0.00 | 0.11 | 0.09 | 44 | 1015.3 |
| 20260510134545 | 59 | 4.0 | 5.0 | 0.00 | 0.11 | 0.09 | 42 | 1015.3 | |
| 20260510133540 | 57 | 0 | 11.0 | 16.0 | 0.00 | 0.11 | 0.09 | 45 | 1015.4 |
| 20260510132636 | 55 | 51 | 11.0 | 15.0 | 0.00 | 0.11 | 0.09 | 43 | 1015.5 |
| 20260510131631 | 56 | 107 | 5.0 | 13.0 | 0.00 | 0.11 | 0.09 | 48 | 1015.5 |
| 20260510130626 | 54 | 0 | 9.0 | 16.0 | 0.00 | 0.11 | 0.09 | 45 | 1015.8 |
| 20260510125621 | 58 | 90 | 8.0 | 16.0 | 0.00 | 0.11 | 0.09 | 48 | 1015.9 |
| 20260510124616 | 56 | 90 | 4.0 | 11.0 | 0.00 | 0.11 | 0.09 | 50 | 1015.9 |
| 20260510123612 | 56 | 90 | 5.0 | 9.0 | 0.00 | 0.11 | 0.09 | 51 | 1016.0 |
| 20260510122608 | 56 | 90 | 5.0 | 11.0 | 0.00 | 0.11 | 0.09 | 52 | 1016.1 |
| 20260510121604 | 0 | 0.0 | 0.0 | 0.00 | 0.11 | 0.09 | 1016.3 | ||
| 20260510120559 | 55 | 6.0 | 10.0 | 0.00 | 0.11 | 0.09 | 54 | 1016.2 | |
| 20260510115554 | 55 | 90 | 6.0 | 10.0 | 0.00 | 0.11 | 0.09 | 52 | 1016.2 |
| 20260510114549 | 55 | 45 | 6.0 | 10.0 | 0.00 | 0.11 | 0.09 | 57 | 1016.4 |
| 20260510113545 | 53 | 0 | 8.0 | 11.0 | 0.00 | 0.11 | 0.09 | 60 | 1016.5 |
| 20260510112601 | 51 | 10.0 | 13.0 | 0.00 | 0.11 | 0.09 | 58 | 1016.7 | |
| 20260510111537 | 54 | 90 | 6.0 | 11.0 | 0.00 | 0.11 | 0.09 | 58 | 1016.8 |
| 20260510110634 | 55 | 90 | 6.0 | 9.0 | 0.00 | 0.11 | 0.09 | 58 | 1017.0 |
| 20260510105630 | 52 | 105 | 8.0 | 14.0 | 0.00 | 0.11 | 0.09 | 63 | 1017.0 |
| 20260510104626 | 53 | 90 | 7.0 | 8.0 | 0.00 | 0.11 | 0.09 | 61 | 1017.2 |
| 20260510103622 | 52 | 90 | 6.0 | 10.0 | 0.00 | 0.11 | 0.09 | 66 | 1017.2 |
| 20260510102616 | 51 | 90 | 6.0 | 11.0 | 0.00 | 0.11 | 0.09 | 66 | 1017.4 |
| 20260510101611 | 50 | 90 | 5.0 | 8.0 | 0.00 | 0.11 | 0.09 | 68 | 1017.4 |
| 20260510100607 | 50 | 90 | 4.0 | 8.0 | 0.00 | 0.11 | 0.09 | 69 | 1017.4 |
| 20260510095623 | 49 | 90 | 5.0 | 8.0 | 0.00 | 0.11 | 0.09 | 70 | 1017.4 |
| 20260510094559 | 49 | 90 | 4.0 | 12.0 | 0.00 | 0.11 | 0.09 | 70 | 1017.5 |
| 20260510093635 | 48 | 17 | 4.0 | 11.0 | 0.00 | 0.11 | 0.09 | 71 | 1017.6 |
| 20260510092550 | 48 | 90 | 9.0 | 15.0 | 0.00 | 0.11 | 0.09 | 72 | 1017.7 |
| 20260510091605 | 47 | 69 | 5.0 | 11.0 | 0.00 | 0.11 | 0.09 | 73 | 1017.6 |
| 20260510090540 | 47 | 45 | 6.0 | 10.0 | 0.00 | 0.11 | 0.09 | 74 | 1017.8 |
| 20260510085535 | 47 | 90 | 5.0 | 11.0 | 0.01 | 0.11 | 0.09 | 74 | 1017.8 |
| 20260510084630 | 46 | 90 | 6.0 | 11.0 | 0.01 | 0.11 | 0.09 | 75 | 1017.7 |
| 20260510083626 | 46 | 90 | 4.0 | 8.0 | 0.01 | 0.11 | 0.09 | 75 | 1017.8 |
| 20260510082642 | 46 | 90 | 3.0 | 4.0 | 0.01 | 0.11 | 0.09 | 76 | 1017.8 |
| 20260510081618 | 46 | 90 | 3.0 | 8.0 | 0.01 | 0.11 | 0.09 | 76 | 1017.8 |
| 20260510080613 | 46 | 4.0 | 8.0 | 0.01 | 0.11 | 0.09 | 76 | 1017.7 | |
| 20260510075608 | 0 | 0.0 | 0.0 | 0.00 | 0.09 | 0.08 | 1017.7 | ||
| 20260510074623 | 45 | 5.0 | 7.0 | 0.00 | 0.09 | 0.08 | 85 | 1017.6 | |
| 20260510073559 | 45 | 4.0 | 4.0 | 0.00 | 0.09 | 0.08 | 85 | 1017.6 | |
| 20260510072556 | 45 | 13 | 11.0 | 16.0 | 0.00 | 0.09 | 0.08 | 86 | 1017.6 |
| 20260510071611 | 45 | 9 | 7.0 | 11.0 | 0.00 | 0.09 | 0.08 | 87 | 1017.7 |
| 20260510070608 | 44 | 7.0 | 10.0 | 0.00 | 0.09 | 0.08 | 87 | 1017.7 | |
| 20260510065544 | 44 | 0 | 10.0 | 12.0 | 0.00 | 0.09 | 0.08 | 88 | 1017.6 |
| 20260510064540 | 44 | 0 | 6.0 | 16.0 | 0.00 | 0.09 | 0.08 | 89 | 1017.5 |
| 20260510063536 | 44 | 6.0 | 8.0 | 0.00 | 0.09 | 0.08 | 89 | 1017.5 | |
| 20260510062531 | 43 | 0 | 9.0 | 15.0 | 0.00 | 0.09 | 0.08 | 89 | 1017.4 |
| 20260510061526 | 43 | 9.0 | 14.0 | 0.00 | 0.09 | 0.08 | 89 | 1017.5 | |
| 20260510060622 | 43 | 90 | 10.0 | 13.0 | 0.00 | 0.09 | 0.08 | 89 | 1017.4 |
| 20260510055618 | 43 | 0 | 7.0 | 12.0 | 0.00 | 0.09 | 0.08 | 89 | 1017.4 |
| 20260510054634 | 43 | 11.0 | 16.0 | 0.00 | 0.09 | 0.08 | 90 | 1017.4 | |
| 20260510053609 | 43 | 350 | 10.0 | 15.0 | 0.00 | 0.09 | 0.08 | 91 | 1017.4 |
| 20260510052624 | 43 | 90 | 9.0 | 12.0 | 0.00 | 0.09 | 0.08 | 91 | 1017.4 |
| 20260510051559 | 43 | 0 | 10.0 | 17.0 | 0.00 | 0.09 | 0.08 | 91 | 1017.4 |
| 20260510050634 | 43 | 90 | 6.0 | 11.0 | 0.00 | 0.09 | 0.08 | 92 | 1017.4 |
| 20260510045549 | 43 | 90 | 5.0 | 9.0 | 0.00 | 0.09 | 0.08 | 92 | 1017.4 |
| 20260510044544 | 43 | 13 | 6.0 | 11.0 | 0.00 | 0.09 | 0.08 | 93 | 1017.5 |
| 20260510043540 | 43 | 90 | 4.0 | 11.0 | 0.00 | 0.09 | 0.08 | 93 | 1017.5 |
| 20260510042536 | 43 | 0 | 6.0 | 11.0 | 0.00 | 0.09 | 0.08 | 94 | 1017.6 |
| 20260510041552 | 43 | 90 | 7.0 | 9.0 | 0.00 | 0.09 | 0.08 | 95 | 1017.6 |
| 20260510040528 | 43 | 5.0 | 11.0 | 0.01 | 0.09 | 0.08 | 95 | 1017.7 | |
| 20260510035522 | 43 | 0 | 3.0 | 5.0 | 0.02 | 0.09 | 0.08 | 95 | 1017.6 |
| 20260510034617 | 43 | 90 | 7.0 | 11.0 | 0.04 | 0.09 | 0.08 | 95 | 1017.6 |
| 20260510033613 | 43 | 0 | 4.0 | 8.0 | 0.05 | 0.09 | 0.08 | 95 | 1017.8 |
| 20260510032609 | 44 | 90 | 5.0 | 10.0 | 0.06 | 0.09 | 0.08 | 95 | 1017.9 |
| 20260510031626 | 44 | 90 | 4.0 | 11.0 | 0.06 | 0.09 | 0.08 | 95 | 1017.9 |
| 20260510030622 | 44 | 90 | 6.0 | 11.0 | 0.05 | 0.08 | 0.07 | 94 | 1017.8 |
| 20260510025618 | 44 | 82 | 4.0 | 7.0 | 0.05 | 0.07 | 0.06 | 94 | 1017.9 |
| 20260510024614 | 44 | 270 | 8.0 | 11.0 | 0.04 | 0.06 | 0.05 | 94 | 1018.0 |
| 20260510023549 | 44 | 37 | 7.0 | 11.0 | 0.02 | 0.05 | 0.04 | 94 | 1017.9 |
| 20260510022543 | 44 | 9.0 | 15.0 | 0.01 | 0.04 | 0.02 | 94 | 1018.1 | |
| 20260510021539 | 44 | 90 | 5.0 | 8.0 | 0.01 | 0.04 | 0.02 | 94 | 1018.1 |
| 20260510020535 | 44 | 0 | 5.0 | 9.0 | 0.01 | 0.04 | 0.02 | 94 | 1018.2 |
| 20260510015531 | 44 | 58 | 5.0 | 8.0 | 0.01 | 0.02 | 0.01 | 94 | 1018.1 |
| 20260510014527 | 44 | 0 | 8.0 | 11.0 | 0.01 | 0.02 | 0.01 | 94 | 1018.0 |
| 20260510013542 | 45 | 322 | 6.0 | 9.0 | 0.01 | 0.02 | 0.01 | 94 | 1018.0 |
| 20260510012517 | 45 | 339 | 6.0 | 8.0 | 0.01 | 0.02 | 0.01 | 94 | 1018.2 |
| 20260510011613 | 45 | 78 | 5.0 | 8.0 | 0.01 | 0.02 | 0.01 | 93 | 1018.1 |
| 20260510010627 | 45 | 0 | 6.0 | 12.0 | 0.01 | 0.02 | 0.01 | 93 | 1018.1 |
| 20260510005602 | 45 | 7.0 | 10.0 | 0.00 | 0.01 | 0.00 | 93 | 1018.0 | |
| 20260510004557 | 47 | 90 | 5.0 | 8.0 | 0.00 | 0.01 | 0.00 | 86 | 1019.2 |
| 20260510003553 | 45 | 90 | 5.0 | 8.0 | 0.00 | 0.01 | 0.00 | 93 | 1018.1 |
| 20260510002549 | 45 | 90 | 5.0 | 8.0 | 0.00 | 0.01 | 0.00 | 93 | 1018.1 |
| 20260510001606 | 0 | 0.0 | 0.0 | 0.00 | 0.01 | 0.00 | 1018.1 | ||
| 20260510000541 | 0 | 0.0 | 0.0 | 0.00 | 0.01 | 0.00 | 1017.9 | ||
| 20260509235536 | 46 | 90 | 8.0 | 11.0 | 0.00 | 0.01 | 0.00 | 88 | 1018.0 |
| 20260509234532 | 46 | 90 | 8.0 | 11.0 | 0.00 | 0.01 | 0.00 | 88 | 1018.2 |
| 20260509233528 | 0 | 0.0 | 0.0 | 0.00 | 0.01 | 0.00 | 1018.2 | ||
| 20260509232524 | 0 | 0.0 | 0.0 | 0.00 | 0.01 | 0.00 | 1018.1 | ||
| 20260509231521 | 0 | 0.0 | 0.0 | 0.00 | 0.01 | 0.00 | 1018.1 | ||
| 20260509230517 | 0 | 0.0 | 0.0 | 0.00 | 0.01 | 0.00 | 1018.1 | ||
| 20260509225613 | 47 | 9.0 | 12.0 | 0.00 | 0.01 | 0.01 | 86 | 1018.0 | |
| 20260509224610 | 47 | 9.0 | 12.0 | 0.00 | 0.01 | 0.01 | 86 | 1018.0 | |
| 20260509223646 | 0 | 0.0 | 0.0 | 0.00 | 0.01 | 0.01 | 1017.9 | ||
| 20260509222601 | 0 | 0.0 | 0.0 | 0.00 | 0.01 | 0.01 | 1017.9 | ||
| 20260509221556 | 0 | 0.0 | 0.0 | 0.00 | 0.01 | 0.01 | 1017.9 | ||
| 20260509220553 | 48 | 11.0 | 14.0 | 0.00 | 0.01 | 0.01 | 85 | 1017.8 | |
| 20260509215549 | 0 | 0.0 | 0.0 | 0.00 | 0.01 | 0.01 | 1017.7 | ||
| 20260509214606 | 0 | 0.0 | 0.0 | 0.00 | 0.01 | 0.01 | 1017.7 | ||
| 20260509213541 | 0 | 0.0 | 0.0 | 0.00 | 0.01 | 0.01 | 1017.7 | ||
| 20260509212537 | 50 | 0 | 6.0 | 10.0 | 0.00 | 0.01 | 0.01 | 86 | 1017.8 |
| 20260509211532 | 50 | 0 | 8.0 | 10.0 | 0.00 | 0.01 | 0.01 | 86 | 1017.7 |
| 20260509210527 | 50 | 90 | 6.0 | 14.0 | 0.00 | 0.01 | 0.01 | 86 | 1017.7 |
| 20260509205523 | 51 | 90 | 3.0 | 5.0 | 0.00 | 0.01 | 0.01 | 85 | 1017.5 |
| 20260509204518 | 51 | 90 | 8.0 | 14.0 | 0.00 | 0.01 | 0.01 | 84 | 1017.4 |
| 20260509203634 | 52 | 13 | 8.0 | 14.0 | 0.00 | 0.01 | 0.01 | 84 | 1017.3 |
| 20260509202611 | 52 | 90 | 12.0 | 19.0 | 0.00 | 0.01 | 0.01 | 84 | 1017.2 |